This demonstration page uses our WeatherBlox Daily Observations layout. Learn more.

Left ArrowRight Arrow

39.12711, -84.51439

Hourly Observations for September 21, 2016

Temp ( °F °C ) Dew Point ( °F °C ) Humidity (%) Winds ( mph kmh ) Pressure ( in mb ) Visibility ( mi km ) Precip ( " mm )
12:53 am 00:53 Clear with Mist and Fog 62 16.7 62 16.7 100 100 Calm 30.14 1021 5 8 0.00 0.00
1:01 am 01:01 Clear with Mist and Fog 62 16.7 62 16.7 100 100 Calm 30.12 1020 1 2 0.00 0.00
1:12 am 01:12 Clear with Mist and Fog 61 16 61 16 100 100 Calm 30.12 1020 4 6 0.00 0.00
1:15 am 01:15 Clear with Mist and Fog 61 16.1 61 16.1 100 100 Calm 30.12 1020 1 2 0.00 0.00
1:23 am 01:23 Clear with Fog 62 16.7 62 16.7 100 100 Calm 30.12 1020 1 1 0.00 0.00
1:29 am 01:29 Clear with Mist and Fog 62 16.7 62 16.7 100 100 Calm 30.12 1020 3 4 0.00 0.00
1:36 am 01:36 Clear 61 16 61 16 100 100 Calm 30.12 1020 7 11 0.00 0.00
1:53 am 01:53 Clear with Mist and Fog 61 16.1 61 16.1 100 100 Calm 30.14 1021 2 3 0.00 0.00
2:08 am 02:08 Clear 61 16 61 16 100 100 Calm 30.12 1020 8 13 0.00 0.00
2:53 am 02:53 Clear 59 15 59 15 100 100 Calm 30.14 1021 8 13 0.00 0.00
3:53 am 03:53 Clear with Mist and Fog 60 15.6 60 15.6 100 100 NE 3 6 30.14 1021 6 10 0.00 0.00
4:00 am 04:00 Clear with Mist and Fog 57 14 57 14 100 100 Calm 30.15 1021 1 2 0.00 0.00
4:21 am 04:21 Clear with Mist and Fog 58 14.4 58 14.4 100 100 ENE 3 6 30.15 1021 3 5 0.00 0.00
4:49 am 04:49 Clear with Mist and Fog 59 15 59 15 100 100 NE 3 6 30.15 1021 2 2 0.00 0.00
4:53 am 04:53 Clear with Mist and Fog 59 15 59 15 100 100 ENE 3 6 30.14 1021 1 1 0.00 0.00
5:07 am 05:07 Clear with Mist and Fog 58 14.4 58 14.4 100 100 NE 3 6 30.15 1021 1 2 0.00 0.00
5:18 am 05:18 Clear with Mist and Fog 57 14 57 14 100 100 NE 3 6 30.15 1021 3 5 0.00 0.00
5:20 am 05:20 Clear with Mist and Fog 57 14 57 14 100 100 NE 3 6 30.15 1021 2 3 0.00 0.00
5:34 am 05:34 Clear with Mist and Fog 59 15 59 15 100 100 Calm 30.15 1021 3 5 0.00 0.00
5:53 am 05:53 Clear with Mist and Fog 59 15 59 15 100 100 Calm 30.15 1021 3 5 0.00 0.00
6:00 am 06:00 Clear with Mist and Fog 58 14.4 58 14.4 100 100 Calm 30.18 1022 2 3 0.00 0.00
6:04 am 06:04 Mostly Clear with Mist and Fog 57 14 57 14 100 100 Calm 30.18 1022 3 4 0.00 0.00
6:06 am 06:06 Mostly Cloudy with Mist and Fog 57 14 57 14 100 100 Calm 30.18 1022 1 1 0.00 0.00
6:17 am 06:17 Mostly Clear with Mist and Fog 57 13.9 57 13.9 100 100 Calm 30.18 1022 1 2 0.00 0.00
6:22 am 06:22 Mostly Clear with Mist and Fog 57 14 57 14 100 100 ENE 3 6 30.18 1022 3 5 0.00 0.00
6:34 am 06:34 Mostly Clear with Mist and Fog 57 14 57 14 100 100 NE 3 6 30.18 1022 3 4 0.00 0.00
6:43 am 06:43 Clear with Mist and Fog 58 14.4 58 14.4 100 100 Calm 30.18 1022 4 6 0.00 0.00
6:53 am 06:53 Clear with Mist and Fog 59 15 59 15 100 100 ENE 3 6 30.16 1022 5 8 0.00 0.00
7:53 am 07:53 Sunny with Mist and Fog 58 14.4 58 14.4 100 100 NE 3 6 30.19 1022 5 8 0.00 0.00
8:53 am 08:53 Sunny 64 17.8 63 17.2 96 96 Calm 30.20 1023 9 14 0.00 0.00
9:53 am 09:53 Sunny 69 20.6 63 17.2 81 81 Calm 30.20 1023 10 16 0.00 0.00
10:53 am 10:53 Sunny 74 23.3 64 17.8 71 71 Calm 30.20 1023 10 16 0.00 0.00
11:53 am 11:53 Sunny 80 26.7 66 18.9 62 62 Calm 30.20 1023 10 16 0.00 0.00
12:53 pm 12:53 Sunny 84 28.9 62 16.7 48 48 NE 3 6 30.19 1022 10 16 0.00 0.00
1:53 pm 13:53 Sunny 86 30 63 17.2 46 46 NE 5 7 30.18 1022 10 16 0.00 0.00
2:53 pm 14:53 Sunny 87 30.6 62 16.7 43 43 NE 5 7 30.15 1021 10 16 0.00 0.00
3:53 pm 15:53 Sunny 87 30.6 61 16.1 42 42 Calm 30.13 1020 10 16 0.00 0.00
4:53 pm 16:53 Sunny 86 30 61 16.1 43 43 NE 7 11 30.12 1020 10 16 0.00 0.00
5:53 pm 17:53 Sunny 87 30.6 62 16.7 43 43 NNE 3 6 30.12 1020 10 16 0.00 0.00
6:53 pm 18:53 Sunny 80 26.7 72 22.2 76 76 Calm 30.12 1020 10 16 0.00 0.00
7:53 pm 19:53 Clear 71 21.7 68 20 90 90 Calm 30.12 1020 10 16 0.00 0.00
8:53 pm 20:53 Clear 69 20.6 66 18.9 90 90 Calm 30.13 1020 10 16 0.00 0.00
9:53 pm 21:53 Clear 66 18.9 65 18.3 96 96 Calm 30.12 1020 10 16 0.00 0.00
10:53 pm 22:53 Clear 65 18.3 65 18.3 100 100 Calm 30.12 1020 10 16 0.00 0.00
11:53 pm 23:53 Clear 64 17.8 64 17.8 100 100 Calm 30.12 1020 8 13 0.00 0.00

Powered by AerisWeather